Change the Weather History Date:

Wednesday, October 30, 2013

  Actual Average Record
Temperature  
Mean Temperature 63 °F 54 °F  
Max Temperature 72 °F 65 °F 85 °F (1937)
Min Temperature 53 °F 42 °F 23 °F (1969)
Degree Days  
Heating Degree Days 2 12  
Month to date heating degree days 212 236  
Since 1 July heating degree days 246 285  
Cooling Degree Days 0 0  
Month to date cooling degree days 38 18  
Year to date cooling degree days 1225 1204  
Growing Degree Days 12 (Base 50)    
Moisture  
Dew Point 53 °F    
Average Humidity 75    
Maximum Humidity 93    
Minimum Humidity 57    
Precipitation  
Precipitation 0.07 in 0.10 in 3.30 in (1970)
Month to date precipitation 2.53 2.79  
Year to date precipitation 45.97 34.81  
Snow  
Snow 0.00 in - - ()
Month to date snowfall 0.0  
Since 1 July snowfall 0.0  
Since 1 September snowfall 0.0  
Snow Depth 0.00 in    
Sea Level Pressure  
Sea Level Pressure 30.24 in    
Wind  
Wind Speed 2 mph (SSW)    
Max Wind Speed 14 mph    
Max Gust Speed 16 mph    
Visibility 8 miles    
Events Rain    
T = Trace of Precipitation, MM = Missing Value Source: NWS Daily Summary

Daily Weather History Graph

Daily Weather History Graph

Search for Another Location

Airport or City:

Trip Planner

Search our weather history database for the weather conditions in past years. The results will help you decide how hot, cold, wet, or windy it might be!

Date:

Astronomy

Oct. 30, 2013 Rise Set
Actual Time 7:42 AM EDT 6:23 PM EDT
Civil Twilight 7:15 AM EDT 6:50 PM EDT
Nautical Twilight 6:45 AM EDT 7:21 PM EDT
Astronomical Twilight 6:14 AM EDT 7:51 PM EDT
Moon 3:34 AM EDT (10/30) 4:04 PM EDT (10/30)
Length of Visible Light 11h 35m
Length of Day
10h 41m
Waning Crescent, 17% of the Moon is Illuminated
Oct 30
Waning Crescent
Nov 3
New
Nov 10
First Quarter
Nov 17
Full
Nov 25
Last Quarter

Hourly Weather History & Observations

Time (EDT) Temp. Dew Point Humidity Pressure Visibility Wind Dir Wind Speed Gust Speed Precip Events Conditions
12:54 AM 57.9 °F 48.9 °F 72% 30.30 in 10.0 mi SE 3.5 mph - N/A   Overcast
1:54 AM 57.9 °F 48.0 °F 70% 30.29 in 10.0 mi Calm Calm - N/A   Overcast
2:54 AM 57.0 °F 48.9 °F 74% 30.27 in 10.0 mi Calm Calm - N/A   Overcast
3:54 AM 55.0 °F 48.0 °F 77% 30.26 in 10.0 mi SSE 3.5 mph - N/A   Overcast
4:54 AM 55.0 °F 48.9 °F 80% 30.25 in 10.0 mi SE 4.6 mph - 0.00 in   Overcast
5:54 AM 55.0 °F 50.0 °F 83% 30.27 in 9.0 mi Calm Calm - 0.00 in Rain Light Rain
6:54 AM 53.1 °F 50.0 °F 89% 30.27 in 10.0 mi Calm Calm - 0.00 in   Overcast
7:54 AM 54.0 °F 50.0 °F 86% 30.27 in 10.0 mi Calm Calm - 0.00 in   Overcast
8:30 AM 53.6 °F 51.8 °F 94% 30.28 in 2.5 mi SW 3.5 mph - 0.02 in Rain Light Rain
8:37 AM 53.6 °F 51.8 °F 94% 30.28 in 5.0 mi SSW 3.5 mph - 0.02 in Rain Light Rain
8:54 AM 53.1 °F 51.1 °F 93% 30.28 in 4.0 mi Calm Calm - 0.03 in Rain Light Rain
9:07 AM 53.6 °F 51.8 °F 94% 30.29 in 2.5 mi Calm Calm - 0.02 in Rain Light Rain
9:14 AM 53.6 °F 51.8 °F 94% 30.30 in 4.0 mi Calm Calm - 0.03 in Rain Light Rain
9:54 AM 53.1 °F 51.1 °F 93% 30.29 in 6.0 mi South 3.5 mph - 0.04 in   Overcast
10:07 AM 53.6 °F 51.8 °F 94% 30.29 in 5.0 mi Calm Calm - N/A   Overcast
10:54 AM 54.0 °F 52.0 °F 93% 30.28 in 4.0 mi South 3.5 mph - 0.00 in Rain Light Rain
11:00 AM 53.6 °F 51.8 °F 94% 30.28 in 2.5 mi Calm Calm - 0.00 in Rain Light Rain
11:54 AM 55.0 °F 52.0 °F 89% 30.27 in 5.0 mi Calm Calm - 0.00 in   Overcast
12:54 PM 57.9 °F 54.0 °F 87% 30.24 in 6.0 mi Calm Calm - N/A   Mostly Cloudy
1:54 PM 63.0 °F 57.0 °F 81% 30.19 in 8.0 mi SE 9.2 mph - N/A   Overcast
2:54 PM 69.1 °F 57.0 °F 65% 30.17 in 10.0 mi SW 8.1 mph - N/A   Partly Cloudy
3:54 PM 72.0 °F 57.0 °F 59% 30.16 in 10.0 mi Variable 3.5 mph - N/A   Mostly Cloudy
4:54 PM 71.1 °F 55.0 °F 57% 30.16 in 10.0 mi West 3.5 mph - N/A   Mostly Cloudy
5:54 PM 70.0 °F 55.0 °F 59% 30.17 in 10.0 mi WSW 4.6 mph - N/A   Overcast
6:54 PM 68.0 °F 55.0 °F 63% 30.19 in 10.0 mi Calm Calm - N/A   Overcast
7:54 PM 66.9 °F 57.0 °F 70% 30.20 in 10.0 mi ESE 3.5 mph - N/A   Overcast
8:54 PM 66.0 °F 57.0 °F 73% 30.21 in 10.0 mi Calm Calm - N/A   Overcast
9:54 PM 64.0 °F 57.9 °F 80% 30.21 in 10.0 mi NNW 3.5 mph - N/A   Overcast
10:54 PM 63.0 °F 57.9 °F 84% 30.21 in 10.0 mi NNW 3.5 mph - N/A   Overcast
11:54 PM 63.0 °F 57.9 °F 84% 30.19 in 10.0 mi Calm Calm - N/A   Overcast